Location: *
(40.7873°S, 98.7174°E)
Time: 21:38:01
(UTC+00:00)

Cosmos 192 - Pass Details

Date: 03 October 2022
Orbit: 701 x 711 km, 74.0° (Epoch: 05 December)

Event Time Altitude Azimuth Distance (km) Brightness Sun altitude
Rises 20:06:52 0° 202° (SSW) 3,138 7.9 -30.2°
Reaches altitude 10° 20:09:14 10° 204° (SSW) 2,213 7.0 -29.8°
Enters shadow 20:10:16 16° 205° (SSW) 1,815 6.5 -29.7°
